Flag for Vietnam Weather past 2 weeks in Hanoi, Vietnam

Now
81 °F

Passing clouds.


Feels Like: 84 °F
Forecast: 73 / 84 °F
Wind: 6 mph from North

Location: Ha Noi Airport

Current Time: Oct 22, 2014 at 11:55:07 AM

Latest Report: Oct 22, 2014 at 11:30 AM


Visibility: N/A

Pressure: 30.07 "Hg

Humidity: 70%

Dew point: 70 °F

Location of HanoiLocation

Historic Weather in Hanoi — Graph

°F

Hanoi temperature yesterday

Maximum temperature yesterday: 90 °F (at 2:30 PM)
Minimum temperature yesterday: 75 °F (at 11:30 PM)
Average temperature yesterday: 82 °F

Past Weeks' High & Low Weather Summary

 TemperatureHumidityPressure
High90 °F (Oct 8, 2:00 PM)100% (Oct 9, 4:30 AM)30.15 "Hg (Oct 9, 4:30 AM)
Low68 °F (Oct 15, 4:00 AM)38% (Oct 7, 3:00 PM)29.80 "Hg (Oct 10, 2:00 PM)
Average79 °F71%29.97 "Hg
* Reported Oct 7 11:00 AM — Oct 22 11:00 AM, Hanoi, Weather by CustomWeather, © 2014

Note: Actual official high and low records may vary slightly from our data, if they occured in-between our weather recording intervals... More about our weather records

Advertising

Hanoi weather history for previous 24 hours

 ConditionsComfort  
Time TempWeatherWind HumidityBarometerVisibility
11:00 AM
Oct 22
81 °FPassing clouds.5 mph70%30.07 "HgN/A
10:30 AM79 °FSunny.5 mph74%30.07 "Hg10 mi
10:00 AM79 °FSunny.3 mph74%30.09 "Hg10 mi
9:30 AM79 °FPartly sunny.5 mph74%30.09 "HgN/A
9:00 AM79 °FBroken clouds.5 mph89%30.09 "Hg6 mi
8:30 AM79 °FBroken clouds.5 mph94%30.07 "Hg4 mi
8:00 AM77 °FPartly sunny.5 mph100%30.07 "Hg4 mi
7:30 AM75 °FFog.5 mph94%30.07 "Hg3 mi
7:00 AM75 °FFog.5 mph94%30.07 "Hg2 mi
6:30 AM75 °FFog.7 mph100%30.04 "Hg2 mi
6:00 AM75 °FFog.6 mph100%30.04 "Hg2 mi
5:30 AM75 °FFog.7 mph100%30.01 "Hg2 mi
5:00 AM73 °FFog.7 mph100%30.01 "Hg2 mi
4:30 AM75 °FPartly cloudy.7 mph100%30.01 "Hg4 mi
4:00 AM73 °FPassing clouds.6 mph100%30.01 "Hg3 mi
3:30 AM73 °FLight rain. Partly cloudy.No wind100%30.01 "Hg4 mi
3:00 AM73 °FRain. Partly cloudy.3 mph100%30.01 "Hg3 mi
2:30 AM73 °FRain. Partly cloudy.2 mph100%N/A2 mi
2:00 AM73 °FRain. Partly cloudy.3 mph100%N/A3 mi
1:30 AM73 °FLight rain. Partly cloudy.2 mph100%30.01 "Hg4 mi
1:00 AM72 °FLight rain. Partly cloudy.6 mph100%30.01 "Hg4 mi
12:30 AM72 °FLight rain. Partly cloudy.2 mph94%30.04 "Hg4 mi
12:00 AM73 °FHeavy rain. Fog.10 mph100%30.04 "Hg1 mi
11:30 PM
Oct 21
75 °FThunderstorms. Partly cloudy.16 mph100%30.04 "Hg1 mi
11:00 PM79 °FPartly cloudy.10 mph79%30.04 "Hg3 mi
10:30 PM81 °FPartly cloudy.7 mph79%30.01 "Hg3 mi
10:00 PM82 °FFog.7 mph74%30.01 "Hg2 mi
9:30 PM82 °FFog.7 mph74%30.01 "Hg2 mi
9:00 PM82 °FFog.7 mph74%30.01 "Hg2 mi
8:30 PM82 °FClear.No wind70%29.98 "Hg4 mi
8:00 PM82 °FClear.2 mph70%29.98 "Hg5 mi
7:30 PM82 °FClear.2 mph70%29.95 "Hg6 mi
7:00 PM84 °FClear.2 mph66%29.95 "Hg3 mi
6:30 PM84 °FClear.2 mph66%29.92 "Hg3 mi
6:00 PM84 °FClear.5 mph66%29.92 "Hg4 mi
5:30 PM86 °FClear.3 mph62%29.92 "Hg6 mi
5:00 PM86 °FSunny.3 mph59%29.92 "Hg10 mi
4:30 PM88 °FSunny.3 mph55%29.92 "Hg10 mi
4:00 PM88 °FPassing clouds.5 mph55%29.92 "HgN/A
3:30 PM90 °FScattered clouds.3 mph55%29.92 "HgN/A
3:00 PM90 °FScattered clouds.5 mph55%29.92 "HgN/A
2:30 PM90 °FPartly sunny.6 mph52%29.92 "HgN/A
2:00 PM88 °FPartly sunny.5 mph59%29.95 "HgN/A
1:30 PM88 °FPartly sunny.6 mph62%29.95 "HgN/A
1:00 PM86 °FPartly sunny.5 mph62%29.98 "HgN/A
12:30 PM86 °FPartly sunny.3 mph66%29.98 "HgN/A
12:00 PM86 °FBroken clouds.5 mph62%30.01 "HgN/A
11:30 AM86 °FBroken clouds.5 mph62%30.01 "HgN/A
11:00 AM86 °FPartly sunny.6 mph66%30.01 "HgN/A
Weather by CustomWeather, © 2014

See weather overviewHow to use our weather pages